www.pogodaiklimat.ru

Погода и климат >> Архив погоды >> Россия >> Нижегородская область >> Дальнее Константиново


ПОГОДА в Дальнем Константиново

  • Прогноз погоды в Дальнем Константиново
  • Монитор погоды в Дальнем Константиново

АРХИВ ПОГОДЫ в Дальнем Константиново

Время (UTC), дата Ветер
(напр.,м/с)
 
Видим.   Явления Облачность Т
(С)
Тd
(С)
f
(%)
Тe
(С)
Тes
(С)
Комфортность P
(гПа)
Po
(гПа)
Тmin
(С)
Tmax
(С)
R
(мм)
R24
(мм)
S
(см)
15 15.01 Ю 2-6
{6}
4000 м слаб. снег 10/0 600 м
[As op]
-1.2 -2.5 91 -5 -5 997.7 981.2 -1.1 1
18 15.01 ЮЗ 4-5
{9}
4000 м {снег} 3/0
[Ac trans]
0.0 -2.1 86 -5 -5 998.1 981.6
21 15.01 ЮЗ 3-4
{10}
4000 м ясно -3.0 -5.7 82 -8 -8 1000.1 983.4
00 16.01 Ю 2-2
{5}
4000 м 10/0
[As op]
-3.7 -3.7 100 -8 -8 1000.7 983.9
03 16.01 Ю 1-2
{3}
4000 м слаб. снег 10/0 1000 м
[As op]
-3.7 -5.9 85 -6 -6 1000.3 983.5 -3.9 0.2 25
06 16.01 штиль 0
{2}
4000 м слаб. снег 10/0 600 м
[As op]
-4.2 -4.7 96 -5 -5 999.3 982.5 -4.5
09 16.01 штиль 0 4000 м слаб. снег 10/0
[As op]
-3.8 -4.6 94 -5 -5 998.1 981.4
12 16.01 СЗ 2-2
{4}
10 км слаб. снег 10/0
[As op]
-4.3 -4.9 96 -9 -9 996.7 980.0
15 16.01 З 2-4
{4}
4000 м слаб. снег 10/0
[As op]
-5.0 -5.7 95 -9 -9 996.6 979.9 -3.5 4
18 16.01 З 2-4
{4}
4000 м в посл. час снег 10/0
[As op]
-5.4 -6.1 95 -10 -10 997.7 981.0
21 16.01 З 3-6
{6}
4000 м 10/10 1000 м
[Sc]
-6.9 -8.5 88 -13 -13 1000.3 983.4
00 17.01 З 3-7
{8}
4000 м 10/10 1000 м
[Sc]
-8.3 -9.7 90 -14 -14 1002.7 985.6
03 17.01 ЮЗ 3-5
{7}
4000 м 9/9 600 м
[Sc]
-8.1 -9.5 90 -14 -14 1004.2 987.1 -8.4 0.3 28
06 17.01 ЮЗ 2-5
{7}
10 км слаб. снег 10/0 600 м
[As op]
-8.3 -9.7 90 -13 -13 1006.0 988.7
09 17.01 ЮЗ 2-5
{6}
10 км слаб. снег 10/0 600 м
[As op]
-6.5 -8.1 88 -11 -11 1006.6 989.4
12 17.01 Ю 2-4
{5}
10 км слаб. снег 10/0
[As op]
-5.5 -7.3 87 -10 -10 1005.9 988.9
15 17.01 ЮЗ 4-5
{7}
4000 м {снег} 9/0
[Ac trans]
-5.1 -7.2 85 -12 -12 1005.1 988.2 -5.1 0.2
18 17.01 ЮЗ 6-12
{13}
4000 м позёмок {снег} 10/0
[As trans]
-5.2 -7.7 83 -13 -13 1003.6 986.8
21 17.01 ЮЗ 4-10
{13}
4000 м слаб. снег {метель} 10/0
[As op]
-5.3 -7.1 87 -12 -12 1001.9 985.1
00 18.01 ЮЗ 6-11
{14}
4000 м слаб. снег {метель} 10/0
[As op]
-4.5 -6.5 86 -12 -12 1000.1 983.3
03 18.01 ЮЗ 7-11
{14}
4000 м слаб. снег {метель} 10/0 600 м
[As op]
-3.6 -5.4 87 -12 -12 999.3 982.5 -5.4 2 24
06 18.01 ЮЗ 5-7
{12}
10 км позёмок {снег} 10/0
[As op]
-2.8 -4.4 89 -10 -10 1000.2 983.5
09 18.01 ЮЗ 6-8
{10}
10 км позёмок 10/10 1000 м
[Sc]
-1.2 -3.2 86 -8 -8 1001.7 985.1
12 18.01 ЮЗ 5-7
{11}
10 км {метель} 10/10 1000 м
[Sc]
-0.5 -2.9 84 -7 -7 1002.9 986.3
15 18.01 ЮЗ 4-5
{10}
4000 м 9/0
[Ac trans]
-1.0 -3.2 85 -7 -7 1004.2 987.6 -0.3 0.0
18 18.01 Ю 5-10
{10}
4000 м 9/0
[Ac trans]
-1.3 -3.0 88 -8 -8 1003.9 987.3
21 18.01 ЮЗ 4-9
{10}
4000 м слаб. снег 10/0 1000 м
[As op]
-0.5 -1.1 96 -6 -6 1001.9 985.3
00 19.01 Ю 5-11
{11}
4000 м {снег} 10/10 600 м
[Sc]
+0.2 -0.9 92 -6 -6 1001.2 984.6
03 19.01 ЮЗ 4-7
{11}
4000 м 9/9 600 м
[Sc]
+0.8 -0.6 90 -5 -5 1001.2 984.8 -1.5 1 25
06 19.01 СЗ 5-10
{11}
10 км 10/10 600 м
[Sc]
-1.3 -2.7 90 -8 -8 1002.7 986.1
09 19.01 З 4-5
{10}
10 км {снег, метель} 8/0
[Ac trans]
-4.0 -8.1 73 -10 -10 1007.1 990.2
12 19.01 З 2-4
{8}
10 км {снег, метель} 1/0
[Ci fib]
-4.6 -8.9 72 -9 -8 1008.4 991.5
15 19.01 Ю 2-3
{4}
4000 м ясно -8.0 -10.2 84 -12 -12 1009.3 992.2 +1.0 0.3
18 19.01 ЮЗ 3-4
{5}
4000 м 10/0
[As op]
-5.7 -9.1 77 -11 -11 1009.4 992.4
21 19.01 ЮЗ 2-3
{5}
4000 м 9/0
[Ac trans]
-7.0 -9.5 82 -11 -11 1010.2 993.1
00 20.01 ЮЗ 2-4
{5}
4000 м слаб. снег 10/0
[As op]
-7.2 -8.5 90 -12 -12 1011.1 994.0
03 20.01 З 4-6
{8}
4000 м слаб. снег 10/0
[As op]
-7.8 -10.0 84 -15 -15 1012.9 995.7 -8.2 0.0 25
06 20.01 З 3-6
{8}
10 км {снег} ясно -10.3 -11.6 90 -16 -16 1014.3 996.9 -10.5
09 20.01 ЮЗ 3-7
{7}
10 км 6/0
[Cc]
-7.4 -10.8 77 -13 -12 1014.2 997.0
12 20.01 ЮЗ 3-4
{7}
10 км ясно -6.9 -10.6 75 -12 -12 1013.2 996.1
15 20.01 ЮЗ 6-10
{11}
4000 м позёмок 10/0
[Cs]
-5.8 -9.7 74 -14 -14 1011.1 994.0 -5.8 0.0
18 20.01 ЮЗ 4-7
{10}
4000 м позёмок 10/0
[As op]
-6.9 -9.4 82 -14 -14 1010.9 993.8
21 20.01 ЮЗ 3-5
{8}
4000 м слаб. снег {метель} 10/0
[As op]
-6.8 -8.4 88 -13 -13 1010.5 993.4
00 21.01 ЮЗ 3-5
{8}
4000 м {снег, метель} 10/0
[As op]
-6.7 -8.3 88 -12 -12 1009.8 992.7
03 21.01 ЮЗ 4-9
{9}
4000 м слаб. снег 10/0
[As op]
-6.7 -8.3 88 -13 -13 1009.1 992.1 -7.0 0.4 25
06 21.01 ЮЗ 3-6
{9}
4000 м слаб. снег 10/0 600 м
[As op]
-6.9 -8.5 88 -13 -13 1008.4 991.4
09 21.01 ЮЗ 3-7
{8}
10 км слаб. снег 10/0
[As op]
-7.5 -9.7 84 -13 -13 1008.7 991.6
12 21.01 Ю 3-5
{7}
10 км {снег} 10/0
[As op]
-7.9 -10.1 84 -14 -14 1007.7 990.6
15 21.01 ЮЗ 2-4
{6}
4000 м 10/0
[As op]
-8.6 -10.1 89 -13 -13 1007.6 990.5 -6.7 0.4
18 21.01 ЮЗ 1-3
{7}
4000 м в посл. час снег 6/0
[Ac trans]
-9.6 -10.4 94 -12 -12 1007.8 990.5
21 21.01 З 3-5
{5}
4000 м 6/0
[Ac cast]
-11.3 -14.1 80 -17 -17 1008.4 991.0
00 22.01 З 3-4
{5}
4000 м ясно -14.4 -16.4 85 -21 -21 1009.2 991.7
03 22.01 ЮЗ 1-2
{4}
4000 м ясно -17.2 -18.4 90 -20 -20 1010.4 992.5 -17.2 0.3 25
06 22.01 З 3-4
{5}
10 км 8/0
[Ci sp]
-16.9 -18.8 85 -24 -24 1011.8 994.0
09 22.01 З 2-4
{5}
10 км слаб. снег 10/0
[As op]
-15.2 -18.0 79 -20 -20 1013.3 995.5
12 22.01 З 2-3
{5}
10 км {снег} 3/0
[Ci fib]
-15.0 -18.4 75 -20 -20 1014.8 997.2

 

Местоположение метеостанции Дальнее Константиново (Нижегородская область, Россия): широта 55.80 долгота 44.08 высота над уровнем моря 133 м.

В архиве по умолчанию представлена погода в Дальнем Константиново за последнюю неделю. Архивные данные за месяц целиком и за предыдущие месяцы, начиная с января 2011 года, Вы можете получить, выбрав интересующий диапазон дат из раскрывающегося списка и нажав кнопку "Ввод!".


*Определитесь, кто Вы:
робот инопланетянин человек

Внимание! Время в таблицах - всемирное. Для получения местного времени необходимо прибавить поправку, которая равна 3 ч.

Смотрите также архив погоды в соседних городах и на ближайших метеорологических станциях:

Погода в Нижнем Новгороде аэропорт (Нижегородская область, Россия) (51 км)
Погода в Арзамасе (Нижегородская область, Россия) (51 км)
Погода в Нижнем Новгороде (Нижегородская область, Россия) (53 км)
Погода в Лысково (Нижегородская область, Россия) (64 км)
Погода в Павлово (Нижегородская область, Россия) (68 км)
Погода в Лукоянове (Нижегородская область, Россия) (90 км)
Погода в Балахне (Нижегородская область, Россия) (92 км)
Погода в Сергаче (Нижегородская область, Россия) (94 км)
Погода в Волжской ГМО (Нижегородская область, Россия) (106 км)
Погода в Семенове (Нижегородская область, Россия) (107 км)

Пояснения к столбцам:

Ветер - указаны скорость ветра в м/с - средняя за 10 мин, порывы в срок и между сроками (в фигурных скобках) и направление, откуда дует ветер: С - северный, СВ - северо-восточный, В - восточный, ЮВ - юго-восточный, Ю - южный, ЮЗ - юго-западный, З - западный, СЗ - северо-западный.
Видимость - горизонтальная дальность видимости в метрах или километрах. При видимости от 1 до 10 км при отсутствии осадков обычно наблюдается дымка, при ухудшении видимости до 1 км и менее - туман. В сухую погоду видимость может ухудшаться дымом, пылью или мглою.
Явления - указаны атмосферные явления, наблюдавшиеся в срок или в последний час перед сроком; фигурными скобками обозначены явления, наблюдавшиеся между сроками (за 1-3 часа до срока); квадратными скобками обозначены град или гололедные отложения с указанием их диаметра в мм.
Облачность - указаны через наклонную черту общая и нижняя облачность в баллах и высота нижней границы облаков в метрах; квадратными скобками обозначены формы облаков: Ci - перистые, Cs - перисто-слоистые, Cc - перисто-кучевые, Ac - высококучевые, As - высокослоистые, Sc - слоисто-кучевые, Ns - слоисто-дождевые, Cu - кучевые, Cb - кучево-дождевые. Подробнее классификацию облаков см. в Атласе облаков (PDF).
T - Температура воздуха - температура, измеренная на высоте 2 м над землей.
Td - Температура точки росы - температура, при понижении до которой содержащийся в воздухе водяной пар достигнет насыщения.
f - Относительная влажность воздуха - влажноcть воздуха, измеренная на высоте 2 м над землей.
Te - Эффективная температура - температура, которую ощущает одетый по сезону человек в тени. Характеристика душности погоды. При расчете учитывается влияние влажности воздуха и скорости ветра на теплоощущения человека.
Tes - Эффективная температура на солнце - температура, которую ощущает человек, с поправкой на солнечный нагрев. Характеристика знойности погоды. Зависит от высоты солнца над горизонтом, облачности и скорости ветра. Ночью, в пасмурную погоду, а также при ветре 12 м/с и более поправка равна нулю.
P - Атмосферное давление - приведенное к уровню моря атмосферное давление.
Po - Атмосферное давление - измеренное на уровне метеостанции атмосферное давление.
Tmin - Минимальная температура - минимум температуры воздуха на высоте 2 м над землей.
Tmax - Максимальная температура - максимум температуры воздуха на высоте 2 м над землей.
R - Количество осадков - Количество выпавших осадков за период времени, мм. При наведении курсора мыши на число - период времени, за который выпало указанное количество осадков.
R24 - Количество осадков - Количество выпавших осадков за 24 часа, мм.
S - Снежный покров - Высота снежного покрова, см. При наведении курсора мыши на число - состояние снежного покрова и степень покрытия местности в баллах.